Torna al catalogo

STARLINK-35631

AttivoComunicazioniVLEO
NORAD 66121·PAYLOAD·🇺🇸 United States

Lanciato Oct 22, 2025 da Vandenberg Space Force Base

Loading…

Prossimi Passaggi (prossime 24 ore)

TLE

AggiornatoSource: CelesTrak SupGP

Epoca: Sep 14, 2026, 15:30 UTC

1 66121C 25237H   26257.64631944 -.00022651  00000+0 -66940-3 0  2576
2 66121  53.1574 240.9408 0001234  89.3447 310.3500 15.34393526    19

Traccia STARLINK-35631 in tempo reale con AllMySat

Download on the App Store